GW1238 Weather Reports


time (UTC)temp
C
wind
direction
speed
KPH
gust
KPH
rain 1hr
cm
rain 24hr
cm
rain mn
cm
humidity
%
barometer
mb
20260906083800 25 51 0.0 1.6 0.00 0.00 0.00 87 1016.0
20260906083256 25 307 1.6 4.8 0.00 0.00 0.00 88 1016.3
20260906082751 24 114 1.6 4.8 0.00 0.00 0.00 90 1016.1
20260906082246 24 359 1.6 3.2 0.00 0.00 0.00 93 1016.0
20260906081742 24 51 0.0 3.2 0.00 0.00 0.00 94 1016.1
20260906081237 24 12 1.6 3.2 0.00 0.00 0.00 94 1016.0
20260906080734 24 334 3.2 3.2 0.00 0.00 0.00 94 1015.8
20260906080230 24 348 1.6 3.2 0.00 0.00 0.00 94 1016.0
20260906075729 24 20 1.6 3.2 0.00 0.00 0.00 94 1015.9
20260906075224 24 340 1.6 1.6 0.00 0.00 0.00 94 1015.7
20260906074720 24 67 0.0 1.6 0.00 0.00 0.00 94 1015.6
20260906074219 24 330 1.6 3.2 0.00 0.00 0.00 93 1015.4
20260906073719 25 0 1.6 1.6 0.00 0.00 0.00 93 1015.2
20260906073214 24 149 0.0 0.0 0.00 0.00 0.00 93 1015.1
20260906072710 24 119 0.0 0.0 0.00 0.00 0.00 93 1015.1
20260906072205 24 146 0.0 0.0 0.00 0.00 0.00 93 1015.5
20260906071701 24 45 1.6 1.6 0.00 0.00 0.00 93 1015.2
20260906071200 24 29 0.0 1.6 0.00 0.00 0.00 93 1015.2
20260906070657 24 343 3.2 3.2 0.00 0.00 0.00 93 1015.6
20260906070153 24 258 0.0 3.2 0.00 0.00 0.00 93 1015.8
20260906065652 24 356 0.0 4.8 0.00 0.00 0.00 94 1016.1
20260906065148 24 326 3.2 9.7 0.00 0.00 0.00 96 1016.1
20260906064643 24 337 4.8 4.8 0.00 0.00 0.00 96 1015.6
20260906064139 24 331 1.6 3.2 0.00 0.00 0.00 97 1015.7
20260906063639 23 341 3.2 3.2 0.00 0.00 0.00 96 1015.8
20260906063134 23 343 1.6 1.6 0.00 0.00 0.00 96 1015.8
20260906062630 23 6 1.6 3.2 0.00 0.00 0.00 96 1015.8
20260906062129 23 327 1.6 3.2 0.00 0.00 0.00 96 1016.0
20260906061625 23 338 3.2 3.2 0.00 0.00 0.00 96 1016.1
20260906061125 23 336 1.6 3.2 0.00 0.00 0.00 96 1015.9
20260906060621 23 346 1.6 1.6 0.00 0.00 0.00 96 1015.7
20260906060119 23 358 0.0 1.6 0.00 0.00 0.00 96 1015.8
20260906055614 23 338 3.2 4.8 0.00 0.00 0.00 96 1015.6
20260906055109 23 329 3.2 3.2 0.00 0.00 0.00 96 1015.6
20260906054610 23 352 1.6 1.6 0.00 0.00 0.00 96 1015.7
20260906054105 23 28 0.0 1.6 0.00 0.00 0.00 96 1015.6
20260906053601 23 336 1.6 3.2 0.00 0.00 0.00 96 1015.7
20260906053057 23 341 3.2 3.2 0.00 0.00 0.00 95 1015.6
20260906052552 23 354 3.2 3.2 0.00 0.00 0.00 95 1015.5
20260906052049 23 337 1.6 3.2 0.00 0.00 0.00 95 1015.6
20260906051545 23 334 3.2 3.2 0.00 0.00 0.00 95 1015.7
20260906051040 23 339 1.6 3.2 0.00 0.00 0.00 95 1015.7
20260906050535 23 351 1.6 3.2 0.00 0.00 0.00 95 1015.6
20260906050030 23 336 1.6 4.8 0.00 0.00 0.00 94 1015.8
20260906045528 23 329 3.2 3.2 0.00 0.00 0.00 94 1015.9
20260906045024 23 342 1.6 4.8 0.00 0.00 0.00 94 1015.8
20260906044519 23 341 1.6 3.2 0.00 0.00 0.00 94 1015.9
20260906044015 23 347 3.2 3.2 0.00 0.00 0.00 94 1016.2
20260906043510 23 342 3.2 4.8 0.00 0.00 0.00 94 1016.2
20260906043007 24 357 3.2 3.2 0.00 0.00 0.00 93 1016.0
20260906042505 23 341 3.2 3.2 0.00 0.00 0.00 93 1016.3
20260906042005 24 350 1.6 3.2 0.00 0.00 0.00 93 1016.1
20260906041502 24 341 1.6 1.6 0.00 0.00 0.00 93 1016.2
20260906041001 24 354 1.6 3.2 0.00 0.00 0.00 93 1016.2
20260906040456 24 342 3.2 4.8 0.00 0.00 0.00 94 1016.0
20260906035951 24 344 1.6 3.2 0.00 0.00 0.00 93 1016.2
20260906035447 24 336 1.6 3.2 0.00 0.00 0.00 93 1016.1
20260906034943 24 17 1.6 1.6 0.00 0.00 0.00 93 1016.1
20260906034442 24 349 1.6 3.2 0.00 0.00 0.00 93 1016.1
20260906033938 24 344 1.6 1.6 0.00 0.00 0.00 93 1016.0
20260906033438 24 343 1.6 3.2 0.00 0.00 0.00 92 1016.4
20260906032934 24 344 1.6 3.2 0.00 0.00 0.00 92 1016.3
20260906032431 24 330 3.2 3.2 0.00 0.00 0.00 91 1016.1
20260906031930 25 355 1.6 3.2 0.00 0.00 0.00 92 1016.3
20260906031426 25 329 1.6 1.6 0.00 0.00 0.00 92 1016.2
20260906030921 25 5 1.6 3.2 0.00 0.00 0.00 92 1016.2
20260906030415 25 331 1.6 3.2 0.00 0.00 0.00 92 1016.4
20260906025910 25 348 1.6 3.2 0.00 0.00 0.00 91 1016.4
20260906025404 25 344 3.2 3.2 0.00 0.00 0.00 91 1016.4
20260906024903 25 344 3.2 3.2 0.00 0.00 0.00 92 1016.2
20260906024402 25 341 3.2 4.8 0.00 0.00 0.00 91 1016.0
20260906023858 25 332 1.6 3.2 0.00 0.00 0.00 91 1015.7
20260906023355 25 333 1.6 3.2 0.00 0.00 0.00 91 1015.7
20260906022854 25 335 1.6 3.2 0.00 0.00 0.00 90 1015.7
20260906022349 25 15 0.0 1.6 0.00 0.00 0.00 90 1015.7
20260906021845 25 335 1.6 3.2 0.00 0.00 0.00 90 1015.6
20260906021344 25 351 1.6 3.2 0.00 0.00 0.00 90 1015.5
20260906020839 25 341 1.6 3.2 0.00 0.00 0.00 90 1015.6
20260906020338 25 341 3.2 3.2 0.00 0.00 0.00 90 1015.5
20260906015833 25 337 3.2 4.8 0.00 0.00 0.00 89 1015.7
20260906015332 25 336 3.2 3.2 0.00 0.00 0.00 89 1015.6
20260906014832 25 341 3.2 3.2 0.00 0.00 0.00 89 1015.6
20260906014327 25 341 3.2 3.2 0.00 0.00 0.00 88 1015.3
20260906013824 25 340 3.2 3.2 0.00 0.00 0.00 88 1015.5
20260906013319 25 332 3.2 3.2 0.00 0.00 0.00 88 1015.4
20260906012814 25 325 1.6 3.2 0.00 0.00 0.00 88 1015.3
20260906012314 25 341 3.2 4.8 0.00 0.00 0.00 88 1015.1
20260906011809 25 334 3.2 3.2 0.00 0.00 0.00 88 1015.4
20260906011309 25 340 1.6 4.8 0.00 0.00 0.00 88 1015.3
20260906010806 25 344 1.6 3.2 0.00 0.00 0.00 86 1015.3
20260906010301 26 0 1.6 3.2 0.00 0.00 0.00 87 1015.3
20260906005756 26 332 1.6 3.2 0.00 0.00 0.00 86 1015.0
20260906005255 26 339 1.6 3.2 0.00 0.00 0.00 86 1015.2
20260906004754 26 336 1.6 3.2 0.00 0.00 0.00 85 1014.8
20260906004249 26 327 3.2 3.2 0.00 0.00 0.00 85 1015.1
20260906003749 26 35 0.0 1.6 0.00 0.00 0.00 85 1014.8
20260906003245 26 334 1.6 3.2 0.00 0.00 0.00 85 1014.7
20260906002741 26 335 3.2 3.2 0.00 0.00 0.00 85 1014.6
20260906002240 26 334 3.2 3.2 0.00 0.00 0.00 85 1015.0
20260906001736 26 335 3.2 3.2 0.00 0.00 0.00 84 1015.0
20260906001230 26 14 3.2 3.2 0.00 0.00 0.00 84 1014.8
20260906000726 26 353 1.6 3.2 0.00 0.00 0.00 82 1014.6
20260906000227 27 345 1.6 3.2 0.00 0.00 0.00 82 1014.9
20260905235726 27 5 0.0 0.0 0.00 0.00 0.00 81 1015.0
20260905235221 27 31 1.6 1.6 0.00 0.00 0.00 79 1015.1
20260905234717 27 346 1.6 3.2 0.00 0.00 0.00 79 1015.0
20260905234212 28 319 1.6 1.6 0.00 0.00 0.00 79 1014.8
20260905233713 28 14 1.6 1.6 0.00 0.00 0.00 77 1014.9
20260905233212 28 155 0.0 1.6 0.00 0.00 0.00 76 1015.1
20260905232707 28 329 1.6 3.2 0.00 0.00 0.00 76 1015.3
20260905232202 28 336 1.6 1.6 0.00 0.00 0.00 75 1015.0
20260905231658 28 35 1.6 1.6 0.00 0.00 0.00 75 1014.6
20260905231154 28 6 0.0 1.6 0.00 0.00 0.00 76 1014.7
20260905230649 28 89 0.0 1.6 0.00 0.00 0.00 76 1014.5
20260905230147 28 68 0.0 0.0 0.00 0.00 0.00 74 1014.5
20260905225647 29 352 1.6 3.2 0.00 0.00 0.00 75 1014.6
20260905225142 29 116 0.0 3.2 0.00 0.00 0.00 74 1014.8
20260905224642 29 108 3.2 3.2 0.00 0.00 0.00 72 1014.7
20260905224141 29 16 0.0 3.2 0.00 0.00 0.00 70 1014.5
20260905223639 29 328 1.6 3.2 0.00 0.00 0.00 73 1014.7
20260905223135 29 330 3.2 3.2 0.00 0.00 0.00 73 1014.5
20260905222630 30 102 0.0 0.0 0.00 0.00 0.00 70 1014.6
20260905222125 29 330 1.6 1.6 0.00 0.00 0.00 72 1015.1
20260905221621 29 43 0.0 1.6 0.00 0.00 0.00 71 1015.1
20260905221118 30 343 1.6 3.2 0.00 0.00 0.00 69 1015.0
20260905220613 30 88 0.0 1.6 0.00 0.00 0.00 67 1015.3
20260905220109 30 149 0.0 1.6 0.00 0.00 0.00 67 1015.1
20260905215608 30 88 4.8 4.8 0.00 0.00 0.00 69 1015.2
20260905215104 30 117 3.2 6.4 0.00 0.00 0.00 69 1015.2
20260905214600 30 109 4.8 6.4 0.00 0.00 0.00 68 1015.5
20260905214100 30 354 3.2 4.8 0.00 0.00 0.00 67 1015.5
20260905213555 30 103 0.0 3.2 0.00 0.00 0.00 69 1015.5
20260905213051 30 117 1.6 3.2 0.00 0.00 0.00 70 1015.6
20260905212551 30 119 3.2 3.2 0.00 0.00 0.00 71 1015.6
20260905212050 30 113 1.6 4.8 0.00 0.00 0.00 71 1015.5
20260905211546 29 111 3.2 6.4 0.00 0.00 0.00 72 1015.5
20260905211041 29 108 4.8 11.3 0.00 0.00 0.00 74 1015.7
20260905210537 28 114 4.8 6.4 0.00 0.00 0.00 76 1015.4
20260905210032 28 97 3.2 3.2 0.00 0.00 0.00 76 1015.6
20260905205531 28 7 0.0 3.2 0.00 0.00 0.00 79 1015.7
20260905205030 28 113 3.2 4.8 0.00 0.00 0.00 77 1015.9
20260905204525 28 291 3.2 4.8 0.00 0.00 0.00 77 1015.5
20260905204021 28 59 3.2 4.8 0.00 0.00 0.00 78 1015.7
20260905203520 28 101 4.8 4.8 0.00 0.00 0.00 82 1015.9
20260905203016 28 312 4.8 6.4 0.00 0.00 0.00 79 1015.4
20260905202511 28 96 3.2 6.4 0.00 0.00 0.00 75 1015.5
20260905202006 29 316 3.2 3.2 0.00 0.00 0.00 72 1015.2
20260905201502 28 306 3.2 4.8 0.00 0.00 0.00 76 1015.2
20260905201001 28 358 1.6 6.4 0.00 0.00 0.00 78 1015.6
20260905200457 28 49 3.2 11.3 0.00 0.00 0.00 75 1015.7
20260905195955 29 320 9.7 12.9 0.00 0.00 0.00 75 1015.6
20260905195450 30 141 4.8 11.3 0.00 0.00 0.00 73 1015.9
20260905194946 33 82 9.7 11.3 0.00 0.00 0.00 64 1015.7
20260905194445 35 143 1.6 3.2 0.00 0.00 0.00 54 1015.2
20260905193940 36 179 1.6 3.2 0.00 0.00 0.00 53 1015.3
20260905193440 36 271 3.2 4.8 0.00 0.00 0.00 50 1015.2
20260905192935 35 219 3.2 4.8 0.00 0.00 0.00 53 1015.3
20260905192431 35 203 1.6 3.2 0.00 0.00 0.00 54 1015.4
20260905191926 35 238 4.8 6.4 0.00 0.00 0.00 56 1015.5
20260905191426 33 218 8.0 9.7 0.00 0.00 0.00 57 1015.4
20260905190920 33 220 6.4 9.7 0.00 0.00 0.00 57 1015.4
20260905190417 33 231 4.8 9.7 0.00 0.00 0.00 61 1015.6
20260905185916 34 210 3.2 6.4 0.00 0.00 0.00 60 1015.6
20260905185412 34 274 1.6 4.8 0.00 0.00 0.00 56 1015.9
20260905184910 33 245 1.6 4.8 0.00 0.00 0.00 57 1016.0
20260905184404 33 223 1.6 3.2 0.00 0.00 0.00 60 1015.8
20260905183903 32 221 3.2 3.2 0.00 0.00 0.00 64 1015.6
20260905183358 32 224 1.6 4.8 0.00 0.00 0.00 62 1015.8
20260905182853 33 281 1.6 3.2 0.00 0.00 0.00 61 1015.8
20260905182352 33 225 1.6 3.2 0.00 0.00 0.00 58 1016.0
20260905181849 33 23 1.6 3.2 0.00 0.00 0.00 60 1016.0
20260905181348 33 108 3.2 4.8 0.00 0.00 0.00 58 1015.9
20260905180847 33 106 6.4 6.4 0.00 0.00 0.00 66 1016.2
20260905180342 34 132 0.0 4.8 0.00 0.00 0.00 60 1016.3
20260905175837 33 98 1.6 9.7 0.00 0.00 0.00 59 1016.1
20260905175331 33 69 1.6 6.4 0.00 0.00 0.00 67 1016.2
20260905174826 33 90 6.4 12.9 0.00 0.00 0.00 64 1016.0
20260905174322 33 112 3.2 6.4 0.00 0.00 0.00 65 1016.0
20260905173818 33 100 6.4 9.7 0.00 0.00 0.00 62 1016.4
20260905173314 33 97 6.4 6.4 0.00 0.00 0.00 63 1016.2
20260905172814 33 100 6.4 6.4 0.00 0.00 0.00 63 1016.4
20260905172312 32 112 4.8 6.4 0.00 0.00 0.00 65 1016.5
20260905171808 32 105 6.4 6.4 0.00 0.00 0.00 71 1016.6
20260905171305 32 112 4.8 4.8 0.00 0.00 0.00 73 1016.5
20260905170801 32 104 4.8 6.4 0.00 0.00 0.00 70 1016.6
20260905170256 32 117 3.2 4.8 0.00 0.00 0.00 74 1016.6
20260905165755 32 115 3.2 3.2 0.00 0.00 0.00 72 1016.6
20260905165251 32 112 3.2 3.2 0.00 0.00 0.00 73 1016.7
20260905164752 32 114 3.2 4.8 0.00 0.00 0.00 74 1016.8
20260905164252 32 118 3.2 4.8 0.00 0.00 0.00 74 1016.8
20260905163747 31 119 4.8 4.8 0.00 0.00 0.00 69 1017.2
20260905163244 31 114 3.2 4.8 0.00 0.00 0.00 70 1017.1
20260905162739 31 113 3.2 4.8 0.00 0.00 0.00 72 1017.0
20260905162239 31 110 3.2 4.8 0.00 0.00 0.00 75 1017.2
20260905161734 31 109 4.8 4.8 0.00 0.00 0.00 73 1017.2
20260905161232 31 114 3.2 4.8 0.00 0.00 0.00 73 1017.1
20260905160731 31 109 3.2 4.8 0.00 0.00 0.00 74 1017.2
20260905160226 31 107 3.2 4.8 0.00 0.00 0.00 76 1017.2
20260905155726 31 144 1.6 1.6 0.00 0.00 0.00 76 1017.4
20260905155225 31 144 0.0 1.6 0.00 0.00 0.00 76 1017.5
20260905154719 31 132 0.0 1.6 0.00 0.00 0.00 77 1017.3
20260905154215 30 136 1.6 4.8 0.00 0.00 0.00 79 1017.5
20260905153710 30 132 3.2 3.2 0.00 0.00 0.00 79 1017.5
20260905153206 30 142 1.6 1.6 0.00 0.00 0.00 78 1017.4
20260905152701 30 124 3.2 3.2 0.00 0.00 0.00 79 1017.5
20260905152155 30 122 1.6 3.2 0.00 0.00 0.00 79 1017.6
20260905151650 31 144 1.6 3.2 0.00 0.00 0.00 76 1017.6
20260905151146 32 164 0.0 0.0 0.00 0.00 0.00 74 1017.6
20260905150641 31 187 1.6 1.6 0.00 0.00 0.00 75 1017.7
20260905150139 31 189 1.6 3.2 0.00 0.00 0.00 76 1017.8
20260905145637 30 200 3.2 3.2 0.00 0.00 0.00 77 1017.6
20260905145137 31 207 3.2 3.2 0.00 0.00 0.00 76 1017.9
20260905144632 31 218 3.2 3.2 0.00 0.00 0.00 75 1017.9
20260905144131 31 159 1.6 3.2 0.00 0.00 0.00 78 1018.0
20260905143625 30 139 1.6 1.6 0.00 0.00 0.00 78 1017.9
20260905143120 30 130 1.6 1.6 0.00 0.00 0.00 79 1018.0
20260905142619 29 136 1.6 4.8 0.00 0.00 0.00 79 1018.0
20260905142118 29 137 3.2 3.2 0.00 0.00 0.00 79 1018.0
20260905141618 30 137 1.6 1.6 0.00 0.00 0.00 75 1017.8
20260905141115 30 142 0.0 1.6 0.00 0.00 0.00 74 1018.0
20260905140615 29 142 1.6 1.6 0.00 0.00 0.00 77 1018.0
20260905140115 29 121 1.6 1.6 0.00 0.00 0.00 79 1018.0
20260905135610 28 126 1.6 3.2 0.00 0.00 0.00 79 1018.0
20260905135105 29 138 1.6 1.6 0.00 0.00 0.00 79 1018.0
20260905134600 29 149 1.6 1.6 0.00 0.00 0.00 78 1018.0
20260905134058 29 146 1.6 1.6 0.00 0.00 0.00 78 1018.0
20260905133555 30 138 1.6 3.2 0.00 0.00 0.00 77 1018.1
20260905133054 30 160 1.6 1.6 0.00 0.00 0.00 77 1018.3
20260905132554 30 169 0.0 1.6 0.00 0.00 0.00 78 1018.5
20260905132049 30 175 0.0 1.6 0.00 0.00 0.00 78 1018.3
20260905131544 29 162 1.6 1.6 0.00 0.00 0.00 81 1018.5
20260905131039 29 133 0.0 1.6 0.00 0.00 0.00 81 1018.3
20260905130538 29 175 1.6 1.6 0.00 0.00 0.00 81 1018.1
20260905130034 29 145 1.6 3.2 0.00 0.00 0.00 81 1018.4
20260905125533 29 166 1.6 1.6 0.00 0.00 0.00 80 1018.3
20260905125029 30 165 0.0 1.6 0.00 0.00 0.00 80 1018.3
20260905124526 28 156 0.0 0.0 0.00 0.00 0.00 88 1018.2
20260905124021 27 140 0.0 0.0 0.00 0.00 0.00 92 1018.4
20260905123517 26 105 0.0 0.0 0.00 0.00 0.00 92 1018.2
20260905123014 25 56 0.0 1.6 0.00 0.00 0.00 93 1018.0
20260905122513 25 337 1.6 1.6 0.00 0.00 0.00 93 1018.3
20260905122008 25 346 1.6 1.6 0.00 0.00 0.00 94 1018.0
20260905121503 25 357 1.6 3.2 0.00 0.00 0.00 95 1018.1
20260905121002 24 335 1.6 3.2 0.00 0.00 0.00 95 1018.1
20260905120456 24 350 1.6 3.2 0.00 0.00 0.00 95 1018.1
20260905115952 23 336 3.2 3.2 0.00 0.00 0.00 96 1018.1
20260905115451 23 337 1.6 3.2 0.00 0.00 0.00 96 1017.6
20260905114946 23 341 3.2 3.2 0.00 0.00 0.00 96 1017.8
20260905114446 23 344 1.6 3.2 0.00 0.00 0.00 96 1017.8
20260905113944 23 344 1.6 3.2 0.00 0.00 0.00 96 1017.8
20260905113440 23 338 3.2 3.2 0.00 0.00 0.00 96 1017.7
20260905112935 23 333 1.6 3.2 0.00 0.00 0.00 96 1017.5
20260905112430 23 339 3.2 4.8 0.00 0.00 0.00 96 1017.4
20260905111926 23 328 3.2 3.2 0.00 0.00 0.00 96 1017.6
20260905111425 23 332 1.6 3.2 0.00 0.00 0.00 96 1017.2
20260905110920 23 326 3.2 3.2 0.00 0.00 0.00 96 1017.1
20260905110419 23 336 1.6 3.2 0.00 0.00 0.00 96 1017.2
20260905105914 23 344 1.6 3.2 0.00 0.00 0.00 96 1017.3
20260905105414 23 332 1.6 3.2 0.00 0.00 0.00 96 1017.2
20260905104914 23 341 1.6 3.2 0.00 0.00 0.00 96 1017.1
20260905104410 23 334 1.6 3.2 0.00 0.00 0.00 96 1017.1
20260905103910 23 332 1.6 3.2 0.00 0.00 0.00 96 1017.0
20260905103405 24 354 1.6 3.2 0.00 0.00 0.00 96 1017.0
20260905102901 23 346 1.6 3.2 0.00 0.00 0.00 95 1017.0
20260905102357 24 341 3.2 3.2 0.00 0.00 0.00 95 1016.7
20260905101852 23 344 1.6 3.2 0.00 0.00 0.00 95 1016.9
20260905101350 23 345 1.6 3.2 0.00 0.00 0.00 96 1017.1
20260905100845 24 343 1.6 3.2 0.00 0.00 0.00 96 1017.1
20260905100341 24 334 1.6 3.2 0.00 0.00 0.00 95 1016.9
20260905095840 24 332 3.2 3.2 0.00 0.00 0.00 95 1017.0
20260905095340 24 334 1.6 3.2 0.00 0.00 0.00 96 1017.0
20260905094835 24 337 1.6 3.2 0.00 0.00 0.00 96 1017.2
20260905094331 24 334 1.6 3.2 0.00 0.00 0.00 96 1017.1
20260905093829 24 338 3.2 3.2 0.00 0.00 0.00 96 1016.6
20260905093326 24 341 3.2 3.2 0.00 0.00 0.00 96 1016.8
20260905092821 24 331 3.2 3.2 0.00 0.00 0.00 96 1016.9
20260905092321 24 339 1.6 4.8 0.00 0.00 0.00 96 1016.7
20260905091816 25 343 1.6 3.2 0.00 0.00 0.00 96 1016.7
20260905091316 25 3 1.6 3.2 0.00 0.00 0.00 96 1016.5
20260905090815 25 359 1.6 3.2 0.00 0.00 0.00 96 1016.8
20260905090311 24 341 1.6 3.2 0.00 0.00 0.00 96 1016.7
20260905085810 25 332 1.6 3.2 0.00 0.00 0.00 96 1016.7
20260905085310 25 341 1.6 3.2 0.00 0.00 0.00 96 1016.7
20260905084806 25 340 3.2 3.2 0.00 0.00 0.00 96 1016.8
20260905084305 25 336 3.2 3.2 0.00 0.00 0.00 95 1016.6